Regional Weather Roundup
Issued by NWS

Home | Current Version | Previous Version | Graphics & Text | Print | Product List | Glossary On
Versions: 1 2 3 4 5 6 7 8 9 10 11 12 13 14 15 16 17 18 19 20 21 22 23 24 25 26 27 28 29 30 31 32 33 34 35 36 37 38 39 40 41 42 43 44 45 46 47 48 49 50
000
ASUS45 KABQ 281701
RWRNM
WEATHER ROUNDUP FOR NEW MEXICO
NATIONAL WEATHER SERVICE ALBUQUERQUE NM
1000 AM MST FRI NOV 28 2014

NOTE: "FAIR" MEANS FEW OR NO CLOUDS BELOW 12,000 FEET AGL WITH NO
       SIGNIFICANT WEATHER OR OBSTRUCTIONS TO VISION.

      THIS PRODUCT IS RELEASED AS TWO VERSIONS.  ONE VERSION NEAR
      THE TOP OF THE HOUR CONTAINING PRELIMINARY DATA FROM ALBUQUERQUE
      AND OTHER STATIONS.  A FINAL VERSION WITH ADDITIONAL DATA IS
      ISSUED ABOUT 10 MINUTES AFTER THE HOUR.

NMZ501-503-504-510>518-281800-
NORTHWEST PLATEAU/NORTHCENTRAL MOUNTAINS

CITY           SKY/WX    TMP DP  RH WIND       PRES   REMARKS
FARMINGTON     SUNNY     38  23  55 SE7       30.26F WCI  33
SANTA FE       SUNNY     46  21  37 N12       30.28F
TAOS           MOSUNNY   39  23  52 CALM      30.31F

$$
NMZ402-403-502-505>509-281800-
WESTCENTRAL MOUNTAINS/SOUTHWEST MOUNTAINS

CITY           SKY/WX    TMP DP  RH WIND       PRES   REMARKS
GALLUP         SUNNY     40  13  33 CALM      30.30F
SILVER CITY    SUNNY     59  19  21 S3        30.31S

$$
NMZ407-409-411-412-281800-
SOUTHERN DESERTS

CITY           SKY/WX    TMP DP  RH WIND       PRES   REMARKS
DEMING         SUNNY     53  24  32 E5        30.27S
HOLLOMAN AFB   MOSUNNY   50  24  35 S3        30.26F
T OR C         SUNNY     51  21  30 VRB3      30.27F

$$
NMZ519>523-281800-
CENTRAL VALLEYS/CENTRAL HIGHLANDS

CITY           SKY/WX    TMP DP  RH WIND       PRES   REMARKS
ALBUQUERQUE    MOSUNNY   45  20  36 CALM      30.29F
DOUBLE EAGLE   MOSUNNY   48  19  32 VRB5      30.30S
CLINES CORNERS MOSUNNY   49  19  30 W14       30.25F
BELEN          FAIR      44  19  37 CALM      30.29F
SOCORRO        NOT AVBL

$$
NMZ524>526-539-540-281800-
SOUTHCENTRAL MOUNTAINS

CITY           SKY/WX    TMP DP  RH WIND       PRES   REMARKS
RUIDOSO        NOT AVBL

$$
NMZ527>531-281800-
NORTHEAST HIGHLANDS/NORTHEAST PLAINS

CITY           SKY/WX    TMP DP  RH WIND       PRES   REMARKS
LAS VEGAS      CLOUDY    59   7  12 SW13      30.20S
RATON          PTSUNNY   51  15  23 VRB3      30.13F
CLAYTON        PTSUNNY   66   9  10 W18       30.04F

$$
NMZ532>537-281800-
EASTCENTRAL PLAINS

CITY           SKY/WX    TMP DP  RH WIND       PRES   REMARKS
TUCUMCARI      PTSUNNY   68  14  12 W23       30.06F
CANNON AFB     SUNNY     63  23  22 W17       30.13F
CLOVIS AIRPORT MOSUNNY   63  27  25 W16       30.12S

$$
NMZ028-029-538-281800-
SOUTHEAST PLAINS

CITY           SKY/WX    TMP DP  RH WIND       PRES   REMARKS
ROSWELL        SUNNY     50  32  50 VRB3      30.17F
CARLSBAD       SUNNY     51  32  48 CALM      30.17F
HOBBS          SUNNY     57  32  38 S8        30.18F


$$



USA.gov is the U.S. government's official web portal to all federal, state and local government web resources and services.